Simultaneous Nadir Overpasses (SNOs) Predictions

Prediction of SNOs between LANDSAT-8 and METOP-B Satellite Orbit:

Table of predicted SNOs for the next 14.0 days since TLE Epoch: 3/8/2025
Index Date (LANDSAT-8) Time (LANDSAT-8) Lat,Lon (LANDSAT-8) SZA (LANDSAT-8 ) Date (METOP-B) Time (METOP-B) Lat,Lon (METOP-B) SZA (METOP-B ) Distance(km) Time Diff (sec)
1 03/09/2025 17:36:41 -81.45, 141.18 92.13 03/09/2025 17:35:42 -81.44, 141.10 92.17 1.45 59
2 03/09/2025 18:26:07 81.45, -51.09 87.87 03/09/2025 18:26:22 81.45, -51.19 87.86 1.92 15
3 03/12/2025 13:10:55 -81.45,-152.36 93.21 03/12/2025 13:10:12 -81.45,-152.37 93.24 0.61 43
4 03/12/2025 14:00:21 81.45, 15.34 86.79 03/12/2025 14:00:52 81.45, 15.32 86.80 0.69 31
5 03/15/2025 08:45:08 -81.44, -86.15 94.33 03/15/2025 08:44:42 -81.44, -86.33 94.36 3.03 26
6 03/15/2025 09:34:34 81.44, 81.52 85.67 03/15/2025 09:35:22 81.45, 81.35 85.67 2.86 48
7 03/18/2025 04:19:20 -81.45, -19.41 95.38 03/18/2025 04:19:11 -81.45, -19.58 95.40 2.94 9
8 03/18/2025 05:08:46 81.45, 148.24 84.62 03/18/2025 05:09:51 81.45, 148.10 84.63 2.47 65
9 03/20/2025 23:04:06 81.44,-120.96 83.51 03/20/2025 23:03:01 81.44,-121.02 83.48 1.15 65



Historial Predications of SNOs between LANDSAT-8 and METOP-B
